Time,TemperatureF,DewpointF,PressureIn,WindDirection,WindDirectionDegrees,WindSpeedMPH,WindSpeedGustMPH,Humidity,HourlyPrecipIn,Conditions,Clouds,dailyrainin,SolarRadiationWatts/m^2,SoftwareType,DateUTC
2013-02-22 00:07:00,39.2,24.0,29.96,West,277,0.0,0.0,55,0.00,,,0.00,0,weatherlink.com 1.10,2013-02-22 07:07:00,
2013-02-22 00:21:00,38.9,24.0,29.96,West,278,0.0,0.0,56,0.00,,,0.00,0,weatherlink.com 1.10,2013-02-22 07:21:00,
2013-02-22 00:36:00,38.3,25.0,29.96,West,277,0.0,0.0,58,0.00,,,0.00,0,weatherlink.com 1.10,2013-02-22 07:36:00,
2013-02-22 00:52:00,37.7,24.0,29.96,West,277,0.0,0.0,58,0.00,,,0.00,0,weatherlink.com 1.10,2013-02-22 07:52:00,
2013-02-22 01:07:00,37.5,24.0,29.97,West,277,0.0,0.0,59,0.00,,,0.00,0,weatherlink.com 1.10,2013-02-22 08:07:00,
2013-02-22 01:22:00,37.1,24.0,29.97,West,277,0.0,0.0,60,0.00,,,0.00,0,weatherlink.com 1.10,2013-02-22 08:22:00,
2013-02-22 01:37:00,37.0,25.0,29.96,West,277,0.0,0.0,61,0.00,,,0.00,0,weatherlink.com 1.10,2013-02-22 08:37:00,
2013-02-22 01:52:00,37.1,25.0,29.95,West,277,0.0,0.0,61,0.00,,,0.00,0,weatherlink.com 1.10,2013-02-22 08:52:00,
2013-02-22 02:07:00,36.8,25.0,29.95,West,277,0.0,0.0,62,0.00,,,0.00,0,weatherlink.com 1.10,2013-02-22 09:07:00,
2013-02-22 02:22:00,36.7,25.0,29.95,West,277,0.0,0.0,62,0.00,,,0.00,0,weatherlink.com 1.10,2013-02-22 09:22:00,
2013-02-22 02:37:00,36.6,25.0,29.95,West,277,0.0,0.0,63,0.00,,,0.00,0,weatherlink.com 1.10,2013-02-22 09:37:00,
2013-02-22 02:52:00,36.5,25.0,29.95,West,277,0.0,0.0,63,0.00,,,0.00,0,weatherlink.com 1.10,2013-02-22 09:52:00,
2013-02-22 03:07:00,36.1,25.0,29.95,West,277,0.0,0.0,64,0.00,,,0.00,0,weatherlink.com 1.10,2013-02-22 10:07:00,
2013-02-22 03:22:00,36.1,25.0,29.95,West,278,0.0,0.0,64,0.00,,,0.00,0,weatherlink.com 1.10,2013-02-22 10:22:00,
2013-02-22 03:37:00,36.1,25.0,29.95,West,278,0.0,0.0,64,0.00,,,0.00,0,weatherlink.com 1.10,2013-02-22 10:37:00,
2013-02-22 03:52:00,36.3,25.0,29.96,West,278,0.0,1.0,64,0.00,,,0.00,0,weatherlink.com 1.10,2013-02-22 10:52:00,
2013-02-22 04:07:00,36.6,25.0,29.96,West,277,3.0,5.0,63,0.00,,,0.00,0,weatherlink.com 1.10,2013-02-22 11:07:00,
2013-02-22 04:22:00,36.0,25.0,29.96,West,277,0.0,3.0,64,0.00,,,0.00,0,weatherlink.com 1.10,2013-02-22 11:22:00,
2013-02-22 04:37:00,36.0,25.0,29.96,West,277,1.0,3.0,64,0.00,,,0.00,0,weatherlink.com 1.10,2013-02-22 11:37:00,
2013-02-22 04:52:00,35.8,25.0,29.97,West,277,1.0,4.0,65,0.00,,,0.00,0,weatherlink.com 1.10,2013-02-22 11:52:00,
2013-02-22 05:07:00,35.6,25.0,29.97,West,277,3.0,5.0,65,0.00,,,0.00,0,weatherlink.com 1.10,2013-02-22 12:07:00,
2013-02-22 05:22:00,35.1,25.0,29.97,West,277,3.0,5.0,66,0.00,,,0.00,0,weatherlink.com 1.10,2013-02-22 12:22:00,
2013-02-22 05:37:00,34.7,25.0,29.98,West,277,1.0,4.0,68,0.00,,,0.00,0,weatherlink.com 1.10,2013-02-22 12:37:00,
2013-02-22 05:52:00,34.4,25.0,29.99,West,277,4.0,4.0,68,0.00,,,0.00,0,weatherlink.com 1.10,2013-02-22 12:52:00,
2013-02-22 06:07:00,34.2,25.0,29.99,West,277,1.0,4.0,69,0.00,,,0.00,0,weatherlink.com 1.10,2013-02-22 13:07:00,
2013-02-22 06:22:00,34.2,25.0,30.00,West,277,2.0,6.0,70,0.00,,,0.00,0,weatherlink.com 1.10,2013-02-22 13:22:00,
2013-02-22 06:37:00,34.1,25.0,30.00,West,277,1.0,5.0,70,0.00,,,0.00,0,weatherlink.com 1.10,2013-02-22 13:37:00,
2013-02-22 06:52:00,33.9,25.0,30.00,West,276,1.0,4.0,70,0.00,,,0.00,12,weatherlink.com 1.10,2013-02-22 13:52:00,
2013-02-22 07:07:00,34.4,26.0,30.01,West,277,2.0,4.0,70,0.00,,,0.00,25,weatherlink.com 1.10,2013-02-22 14:07:00,
2013-02-22 07:22:00,35.0,26.0,30.02,West,276,1.0,6.0,69,0.00,,,0.00,70,weatherlink.com 1.10,2013-02-22 14:22:00,
2013-02-22 07:37:00,36.0,26.0,30.02,West,274,4.0,6.0,67,0.00,,,0.00,125,weatherlink.com 1.10,2013-02-22 14:37:00,
2013-02-22 07:53:00,36.9,26.0,30.03,West,271,2.0,5.0,65,0.00,,,0.00,188,weatherlink.com 1.10,2013-02-22 14:53:00,
2013-02-22 08:08:00,37.8,26.0,30.04,West,271,2.0,4.0,63,0.00,,,0.00,251,weatherlink.com 1.10,2013-02-22 15:08:00,
2013-02-22 08:23:00,38.8,26.0,30.05,West,271,1.0,4.0,61,0.00,,,0.00,306,weatherlink.com 1.10,2013-02-22 15:23:00,
2013-02-22 08:38:00,40.3,26.0,30.06,West,269,1.0,6.0,57,0.00,,,0.00,357,weatherlink.com 1.10,2013-02-22 15:38:00,
2013-02-22 08:53:00,41.8,26.0,30.06,WSW,246,6.0,9.0,53,0.00,,,0.00,399,weatherlink.com 1.10,2013-02-22 15:53:00,
2013-02-22 09:08:00,42.8,25.0,30.06,SW,227,3.0,11.0,50,0.00,,,0.00,448,weatherlink.com 1.10,2013-02-22 16:08:00,
2013-02-22 09:23:00,43.8,26.0,30.06,SW,232,1.0,11.0,49,0.00,,,0.00,492,weatherlink.com 1.10,2013-02-22 16:23:00,
2013-02-22 09:38:00,44.5,26.0,30.07,WSW,238,5.0,8.0,49,0.00,,,0.00,529,weatherlink.com 1.10,2013-02-22 16:38:00,
2013-02-22 09:53:00,44.5,25.0,30.07,WSW,238,3.0,11.0,47,0.00,,,0.00,570,weatherlink.com 1.10,2013-02-22 16:53:00,
2013-02-22 10:08:00,45.3,26.0,30.07,WSW,239,3.0,12.0,47,0.00,,,0.00,606,weatherlink.com 1.10,2013-02-22 17:08:00,
2013-02-22 10:23:00,46.1,26.0,30.07,WSW,238,0.0,9.0,46,0.00,,,0.00,640,weatherlink.com 1.10,2013-02-22 17:23:00,
2013-02-22 10:38:00,46.8,26.0,30.06,WSW,238,2.0,11.0,45,0.00,,,0.00,668,weatherlink.com 1.10,2013-02-22 17:38:00,
2013-02-22 10:53:00,48.2,26.0,30.06,WSW,238,3.0,11.0,42,0.00,,,0.00,698,weatherlink.com 1.10,2013-02-22 17:53:00,
2013-02-22 11:08:00,48.7,25.0,30.05,SW,232,4.0,12.0,40,0.00,,,0.00,721,weatherlink.com 1.10,2013-02-22 18:08:00,
2013-02-22 11:23:00,49.1,24.0,30.05,SW,236,0.0,14.0,38,0.00,,,0.00,737,weatherlink.com 1.10,2013-02-22 18:23:00,
2013-02-22 11:39:00,50.0,24.0,30.05,West,277,2.0,12.0,37,0.00,,,0.00,747,weatherlink.com 1.10,2013-02-22 18:39:00,
2013-02-22 11:54:00,51.9,26.0,30.04,West,264,7.0,11.0,36,0.00,,,0.00,770,weatherlink.com 1.10,2013-02-22 18:54:00,
2013-02-22 12:09:00,51.8,25.0,30.03,WSW,246,1.0,15.0,35,0.00,,,0.00,782,weatherlink.com 1.10,2013-02-22 19:09:00,
2013-02-22 12:24:00,52.2,24.0,30.03,WSW,240,2.0,14.0,34,0.00,,,0.00,777,weatherlink.com 1.10,2013-02-22 19:24:00,
2013-02-22 12:39:00,52.4,24.0,30.01,WSW,238,5.0,14.0,33,0.00,,,0.00,766,weatherlink.com 1.10,2013-02-22 19:39:00,
2013-02-22 12:54:00,53.6,23.0,30.00,SW,236,10.0,18.0,31,0.00,,,0.00,758,weatherlink.com 1.10,2013-02-22 19:54:00,
2013-02-22 13:09:00,53.1,23.0,29.99,West,263,2.0,21.0,31,0.00,,,0.00,747,weatherlink.com 1.10,2013-02-22 20:09:00,
2013-02-22 13:24:00,54.1,23.0,29.99,WNW,284,3.0,15.0,30,0.00,,,0.00,744,weatherlink.com 1.10,2013-02-22 20:24:00,
2013-02-22 13:39:00,54.1,24.0,29.97,West,275,0.0,13.0,31,0.00,,,0.00,715,weatherlink.com 1.10,2013-02-22 20:39:00,
2013-02-22 13:54:00,53.7,24.0,29.96,SW,227,5.0,16.0,31,0.00,,,0.00,687,weatherlink.com 1.10,2013-02-22 20:54:00,
2013-02-22 14:09:00,55.2,24.0,29.95,WSW,245,10.0,11.0,30,0.00,,,0.00,663,weatherlink.com 1.10,2013-02-22 21:09:00,
2013-02-22 14:24:00,54.5,24.0,29.95,SW,233,7.0,15.0,31,0.00,,,0.00,631,weatherlink.com 1.10,2013-02-22 21:24:00,
2013-02-22 14:39:00,55.3,24.0,29.95,WSW,246,0.0,12.0,30,0.00,,,0.00,601,weatherlink.com 1.10,2013-02-22 21:39:00,
2013-02-22 14:54:00,54.7,24.0,29.94,WSW,241,5.0,12.0,31,0.00,,,0.00,561,weatherlink.com 1.10,2013-02-22 21:54:00,
2013-02-22 15:09:00,56.0,24.0,29.94,SW,226,2.0,12.0,29,0.00,,,0.00,520,weatherlink.com 1.10,2013-02-22 22:09:00,
2013-02-22 15:24:00,55.3,23.0,29.94,SW,232,3.0,17.0,29,0.00,,,0.00,476,weatherlink.com 1.10,2013-02-22 22:24:00,
2013-02-22 15:39:00,55.9,23.0,29.94,SSW,209,4.0,14.0,28,0.00,,,0.00,431,weatherlink.com 1.10,2013-02-22 22:39:00,
2013-02-22 15:54:00,55.7,23.0,29.95,SW,221,13.0,17.0,28,0.00,,,0.00,387,weatherlink.com 1.10,2013-02-22 22:54:00,
2013-02-22 16:09:00,55.2,22.0,29.95,SW,229,4.0,17.0,28,0.00,,,0.00,334,weatherlink.com 1.10,2013-02-22 23:09:00,
2013-02-22 16:24:00,55.9,23.0,29.95,West,261,8.0,14.0,28,0.00,,,0.00,283,weatherlink.com 1.10,2013-02-22 23:24:00,
2013-02-22 16:39:00,55.1,23.0,29.95,WSW,248,0.0,21.0,29,0.00,,,0.00,227,weatherlink.com 1.10,2013-02-22 23:39:00,
2013-02-22 16:54:00,54.7,23.0,29.95,SW,223,8.0,16.0,29,0.00,,,0.00,160,weatherlink.com 1.10,2013-02-22 23:54:00,
2013-02-22 17:09:00,54.4,23.0,29.95,SW,225,7.0,15.0,29,0.00,,,0.00,100,weatherlink.com 1.10,2013-02-23 00:09:00,
2013-02-22 17:24:00,54.1,22.0,29.96,WSW,238,1.0,20.0,29,0.00,,,0.00,49,weatherlink.com 1.10,2013-02-23 00:24:00,
2013-02-22 17:39:00,53.4,23.0,29.96,WSW,237,7.0,15.0,30,0.00,,,0.00,14,weatherlink.com 1.10,2013-02-23 00:39:00,
2013-02-22 17:54:00,53.1,22.0,29.96,SW,233,5.0,14.0,30,0.00,,,0.00,5,weatherlink.com 1.10,2013-02-23 00:54:00,
2013-02-22 18:09:00,52.8,22.0,29.97,WSW,238,6.0,10.0,30,0.00,,,0.00,0,weatherlink.com 1.10,2013-02-23 01:09:00,
2013-02-22 18:24:00,52.6,22.0,29.96,SW,236,2.0,11.0,30,0.00,,,0.00,0,weatherlink.com 1.10,2013-02-23 01:24:00,
2013-02-22 18:39:00,52.3,22.0,29.96,WSW,238,0.0,8.0,31,0.00,,,0.00,0,weatherlink.com 1.10,2013-02-23 01:39:00,
2013-02-22 18:54:00,51.9,22.0,29.97,WSW,238,0.0,2.0,31,0.00,,,0.00,0,weatherlink.com 1.10,2013-02-23 01:54:00,
2013-02-22 19:09:00,51.4,23.0,29.97,WSW,238,0.0,0.0,33,0.00,,,0.00,0,weatherlink.com 1.10,2013-02-23 02:09:00,
2013-02-22 19:24:00,50.6,23.0,29.97,WSW,238,1.0,4.0,34,0.00,,,0.00,0,weatherlink.com 1.10,2013-02-23 02:24:00,
2013-02-22 19:39:00,50.7,23.0,29.97,WSW,238,0.0,2.0,34,0.00,,,0.00,0,weatherlink.com 1.10,2013-02-23 02:39:00,
2013-02-22 19:54:00,50.7,24.0,29.97,WSW,240,2.0,2.0,35,0.00,,,0.00,0,weatherlink.com 1.10,2013-02-23 02:54:00,
2013-02-22 20:09:00,50.5,24.0,29.98,WSW,250,0.0,10.0,36,0.00,,,0.00,0,weatherlink.com 1.10,2013-02-23 03:09:00,
2013-02-22 20:24:00,50.0,25.0,29.98,WSW,250,0.0,5.0,38,0.00,,,0.00,0,weatherlink.com 1.10,2013-02-23 03:24:00,
2013-02-22 20:40:00,49.5,25.0,29.98,WSW,251,0.0,4.0,38,0.00,,,0.00,0,weatherlink.com 1.10,2013-02-23 03:40:00,
2013-02-22 20:54:00,49.5,24.0,29.99,WSW,249,3.0,9.0,37,0.00,,,0.00,0,weatherlink.com 1.10,2013-02-23 03:54:00,
2013-02-22 21:09:00,49.0,24.0,30.00,WSW,250,0.0,6.0,38,0.00,,,0.00,0,weatherlink.com 1.10,2013-02-23 04:09:00,
2013-02-22 21:25:00,48.8,24.0,30.00,WSW,250,0.0,9.0,38,0.00,,,0.00,0,weatherlink.com 1.10,2013-02-23 04:25:00,
2013-02-22 21:39:00,48.7,24.0,30.01,WSW,248,7.0,9.0,38,0.00,,,0.00,0,weatherlink.com 1.10,2013-02-23 04:39:00,
2013-02-22 21:54:00,48.5,24.0,30.01,WSW,243,5.0,11.0,38,0.00,,,0.00,0,weatherlink.com 1.10,2013-02-23 04:54:00,
2013-02-22 22:10:00,47.9,24.0,30.01,SW,236,0.0,14.0,39,0.00,,,0.00,0,weatherlink.com 1.10,2013-02-23 05:10:00,
2013-02-22 22:24:00,46.9,24.0,30.02,WSW,241,0.0,7.0,41,0.00,,,0.00,0,weatherlink.com 1.10,2013-02-23 05:24:00,
2013-02-22 22:39:00,46.7,25.0,30.02,WSW,248,0.0,8.0,42,0.00,,,0.00,0,weatherlink.com 1.10,2013-02-23 05:39:00,
2013-02-22 22:54:00,47.2,25.0,30.03,WNW,284,0.0,14.0,42,0.00,,,0.00,0,weatherlink.com 1.10,2013-02-23 05:54:00,
2013-02-22 23:09:00,47.3,24.0,30.03,WNW,286,5.0,18.0,41,0.00,,,0.00,0,weatherlink.com 1.10,2013-02-23 06:09:00,
2013-02-22 23:25:00,47.1,24.0,30.03,WNW,285,0.0,12.0,41,0.00,,,0.00,0,weatherlink.com 1.10,2013-02-23 06:25:00,
2013-02-22 23:39:00,46.7,25.0,30.04,WNW,286,0.0,9.0,42,0.00,,,0.00,0,weatherlink.com 1.10,2013-02-23 06:39:00,
2013-02-22 23:54:00,46.8,24.0,30.04,WNW,285,4.0,9.0,41,0.00,,,0.00,0,weatherlink.com 1.10,2013-02-23 06:54:00,